Time,TemperatureF,DewpointF,PressureIn,WindDirection,WindDirectionDegrees,WindSpeedMPH,WindSpeedGustMPH,Humidity,HourlyPrecipIn,Conditions,Clouds,dailyrainin,SolarRadiationWatts/m^2,SoftwareType,DateUTC
2013-09-11 00:00:00,57.8,33.0,29.76,WSW,256,0.0,0.0,39,0.00,,,0.00,0,WeatherCatV1.21B27,2013-09-11 07:00:00,
2013-09-11 00:05:00,57.8,34.2,29.76,WSW,256,0.0,0.0,41,0.00,,,0.00,0,WeatherCatV1.21B27,2013-09-11 07:05:00,
2013-09-11 00:10:00,57.8,34.9,29.76,West,259,0.0,1.0,42,0.00,,,0.00,0,WeatherCatV1.21B27,2013-09-11 07:10:00,
2013-09-11 00:15:00,57.6,34.7,29.75,West,259,0.0,0.0,42,0.00,,,0.00,0,WeatherCatV1.21B27,2013-09-11 07:15:00,
2013-09-11 00:20:00,57.6,34.7,29.75,WSW,258,0.0,0.0,42,0.00,,,0.00,0,WeatherCatV1.21B27,2013-09-11 07:20:00,
2013-09-11 00:25:00,57.6,34.7,29.75,WSW,258,0.0,2.0,42,0.00,,,0.00,0,WeatherCatV1.21B27,2013-09-11 07:25:00,
2013-09-11 00:30:00,57.8,34.9,29.75,WSW,258,0.0,1.0,42,0.00,,,0.00,0,WeatherCatV1.21B27,2013-09-11 07:30:00,
2013-09-11 00:35:00,58.0,35.0,29.75,WSW,258,0.0,0.0,42,0.00,,,0.00,0,WeatherCatV1.21B27,2013-09-11 07:35:00,
2013-09-11 00:40:00,58.1,34.5,29.75,WSW,258,2.0,3.0,41,0.00,,,0.00,0,WeatherCatV1.21B27,2013-09-11 07:40:00,
2013-09-11 00:45:00,58.3,34.7,29.75,West,259,2.0,3.0,41,0.00,,,0.00,0,WeatherCatV1.21B27,2013-09-11 07:45:00,
2013-09-11 00:50:00,58.6,35.0,29.75,West,271,3.0,4.0,41,0.00,,,0.00,0,WeatherCatV1.21B27,2013-09-11 07:50:00,
2013-09-11 00:55:00,58.7,34.4,29.75,WNW,283,5.0,5.0,40,0.00,,,0.00,0,WeatherCatV1.21B27,2013-09-11 07:55:00,
2013-09-11 01:00:00,58.9,34.6,29.74,WNW,283,0.0,3.0,40,0.00,,,0.00,0,WeatherCatV1.21B27,2013-09-11 08:00:00,
2013-09-11 01:05:00,58.9,34.6,29.74,NW,316,0.0,2.0,40,0.00,,,0.00,0,WeatherCatV1.21B27,2013-09-11 08:05:00,
2013-09-11 01:10:00,58.7,34.4,29.74,NNW,328,1.0,4.0,40,0.00,,,0.00,0,WeatherCatV1.21B27,2013-09-11 08:10:00,
2013-09-11 01:15:00,58.9,34.0,29.72,NNW,328,1.0,2.0,39,0.00,,,0.00,0,WeatherCatV1.21B27,2013-09-11 08:15:00,
2013-09-11 01:20:00,58.9,34.6,29.72,NNW,328,0.0,1.0,40,0.00,,,0.00,0,WeatherCatV1.21B27,2013-09-11 08:20:00,
2013-09-11 01:25:00,58.7,33.8,29.72,NNW,328,0.0,3.0,39,0.00,,,0.00,0,WeatherCatV1.21B27,2013-09-11 08:25:00,
2013-09-11 01:30:00,58.7,33.8,29.72,NNW,328,3.0,3.0,39,0.00,,,0.00,0,WeatherCatV1.21B27,2013-09-11 08:30:00,
2013-09-11 01:35:00,58.6,33.7,29.72,NNW,328,0.0,0.0,39,0.00,,,0.00,0,WeatherCatV1.21B27,2013-09-11 08:35:00,
2013-09-11 01:40:00,58.6,33.7,29.72,NNW,328,1.0,1.0,39,0.00,,,0.00,0,WeatherCatV1.21B27,2013-09-11 08:40:00,
2013-09-11 01:45:00,58.6,33.7,29.72,NW,326,4.0,4.0,39,0.00,,,0.00,0,WeatherCatV1.21B27,2013-09-11 08:45:00,
2013-09-11 01:50:00,58.6,33.1,29.72,NW,317,2.0,5.0,38,0.00,,,0.00,0,WeatherCatV1.21B27,2013-09-11 08:50:00,
2013-09-11 01:55:00,58.7,33.2,29.72,NW,304,4.0,5.0,38,0.00,,,0.00,0,WeatherCatV1.21B27,2013-09-11 08:55:00,
2013-09-11 02:00:00,58.9,33.3,29.72,WNW,302,2.0,4.0,38,0.00,,,0.00,0,WeatherCatV1.21B27,2013-09-11 09:00:00,
2013-09-11 02:05:00,58.9,33.3,29.72,WNW,301,2.0,3.0,38,0.00,,,0.00,0,WeatherCatV1.21B27,2013-09-11 09:05:00,
2013-09-11 02:10:00,58.9,33.3,29.72,WNW,299,2.0,4.0,38,0.00,,,0.00,0,WeatherCatV1.21B27,2013-09-11 09:10:00,
2013-09-11 02:15:00,58.7,33.2,29.71,WNW,299,4.0,4.0,38,0.00,,,0.00,0,WeatherCatV1.21B27,2013-09-11 09:15:00,
2013-09-11 02:20:00,58.6,33.7,29.71,WNW,299,4.0,4.0,39,0.00,,,0.00,0,WeatherCatV1.21B27,2013-09-11 09:20:00,
2013-09-11 02:25:00,58.6,33.7,29.71,WNW,293,4.0,5.0,39,0.00,,,0.00,0,WeatherCatV1.21B27,2013-09-11 09:25:00,
2013-09-11 02:30:00,58.4,33.5,29.72,WNW,293,2.0,4.0,39,0.00,,,0.00,0,WeatherCatV1.21B27,2013-09-11 09:30:00,
2013-09-11 02:35:00,58.4,34.2,29.72,WNW,288,5.0,5.0,40,0.00,,,0.00,0,WeatherCatV1.21B27,2013-09-11 09:35:00,
2013-09-11 02:40:00,58.6,35.0,29.72,WNW,293,3.0,4.0,41,0.00,,,0.00,0,WeatherCatV1.21B27,2013-09-11 09:40:00,
2013-09-11 02:45:00,58.6,35.0,29.71,WNW,293,1.0,5.0,41,0.00,,,0.00,0,WeatherCatV1.21B27,2013-09-11 09:45:00,
2013-09-11 02:50:00,58.6,34.3,29.71,WNW,293,0.0,4.0,40,0.00,,,0.00,0,WeatherCatV1.21B27,2013-09-11 09:50:00,
2013-09-11 02:55:00,58.6,34.3,29.71,WNW,293,3.0,3.0,40,0.00,,,0.00,0,WeatherCatV1.21B27,2013-09-11 09:55:00,
2013-09-11 03:00:00,58.4,34.8,29.71,WNW,293,2.0,4.0,41,0.00,,,0.00,0,WeatherCatV1.21B27,2013-09-11 10:00:00,
2013-09-11 03:05:00,58.4,34.8,29.71,WNW,293,0.0,3.0,41,0.00,,,0.00,0,WeatherCatV1.21B27,2013-09-11 10:05:00,
2013-09-11 03:10:00,58.3,34.7,29.71,WNW,297,0.0,4.0,41,0.00,,,0.00,0,WeatherCatV1.21B27,2013-09-11 10:10:00,
2013-09-11 03:15:00,58.3,35.3,29.72,WNW,288,0.0,2.0,42,0.00,,,0.00,0,WeatherCatV1.21B27,2013-09-11 10:15:00,
2013-09-11 03:20:00,58.1,35.7,29.72,WNW,283,2.0,3.0,43,0.00,,,0.00,0,WeatherCatV1.21B27,2013-09-11 10:20:00,
2013-09-11 03:25:00,58.1,36.3,29.72,WNW,283,0.0,4.0,44,0.00,,,0.00,0,WeatherCatV1.21B27,2013-09-11 10:25:00,
2013-09-11 03:30:00,58.0,36.2,29.72,WNW,283,0.0,1.0,44,0.00,,,0.00,0,WeatherCatV1.21B27,2013-09-11 10:30:00,
2013-09-11 03:35:00,58.0,36.8,29.72,WNW,283,2.0,4.0,45,0.00,,,0.00,0,WeatherCatV1.21B27,2013-09-11 10:35:00,
2013-09-11 03:40:00,58.0,36.8,29.72,West,279,2.0,3.0,45,0.00,,,0.00,0,WeatherCatV1.21B27,2013-09-11 10:40:00,
2013-09-11 03:45:00,57.8,36.6,29.72,West,279,3.0,4.0,45,0.00,,,0.00,0,WeatherCatV1.21B27,2013-09-11 10:45:00,
2013-09-11 03:50:00,57.8,36.6,29.72,West,276,0.0,3.0,45,0.00,,,0.00,0,WeatherCatV1.21B27,2013-09-11 10:50:00,
2013-09-11 03:55:00,57.6,36.4,29.72,West,276,0.0,3.0,45,0.00,,,0.00,0,WeatherCatV1.21B27,2013-09-11 10:55:00,
2013-09-11 04:00:00,57.5,36.3,29.72,West,277,2.0,3.0,45,0.00,,,0.00,0,WeatherCatV1.21B27,2013-09-11 11:00:00,
2013-09-11 04:05:00,57.5,36.3,29.72,WNW,288,2.0,4.0,45,0.00,,,0.00,0,WeatherCatV1.21B27,2013-09-11 11:05:00,
2013-09-11 04:10:00,57.3,36.1,29.72,WNW,288,1.0,4.0,45,0.00,,,0.00,0,WeatherCatV1.21B27,2013-09-11 11:10:00,
2013-09-11 04:15:00,57.2,36.0,29.75,WNW,299,2.0,5.0,45,0.00,,,0.00,0,WeatherCatV1.21B27,2013-09-11 11:15:00,
2013-09-11 04:20:00,57.0,35.9,29.75,WNW,293,0.0,4.0,45,0.00,,,0.00,0,WeatherCatV1.21B27,2013-09-11 11:20:00,
2013-09-11 04:25:00,57.0,36.4,29.75,WNW,293,0.0,4.0,46,0.00,,,0.00,0,WeatherCatV1.21B27,2013-09-11 11:25:00,
2013-09-11 04:30:00,56.9,35.8,29.75,WNW,293,1.0,4.0,45,0.00,,,0.00,0,WeatherCatV1.21B27,2013-09-11 11:30:00,
2013-09-11 04:35:00,56.7,36.2,29.75,WNW,293,2.0,4.0,46,0.00,,,0.00,0,WeatherCatV1.21B27,2013-09-11 11:35:00,
2013-09-11 04:40:00,56.7,36.2,29.75,WNW,283,4.0,6.0,46,0.00,,,0.00,0,WeatherCatV1.21B27,2013-09-11 11:40:00,
2013-09-11 04:45:00,56.6,36.1,29.75,WNW,283,4.0,4.0,46,0.00,,,0.00,0,WeatherCatV1.21B27,2013-09-11 11:45:00,
2013-09-11 04:50:00,56.5,36.0,29.75,WNW,297,3.0,5.0,46,0.00,,,0.00,0,WeatherCatV1.21B27,2013-09-11 11:50:00,
2013-09-11 04:55:00,56.5,36.5,29.75,WNW,299,4.0,7.0,47,0.00,,,0.00,0,WeatherCatV1.21B27,2013-09-11 11:55:00,
2013-09-11 05:00:00,56.5,36.0,29.75,WNW,293,5.0,7.0,46,0.00,,,0.00,0,WeatherCatV1.21B27,2013-09-11 12:00:00,
2013-09-11 05:05:00,56.5,36.0,29.75,WNW,299,3.0,4.0,46,0.00,,,0.00,0,WeatherCatV1.21B27,2013-09-11 12:05:00,
2013-09-11 05:10:00,56.5,36.0,29.75,WNW,299,3.0,6.0,46,0.00,,,0.00,0,WeatherCatV1.21B27,2013-09-11 12:10:00,
2013-09-11 05:15:00,56.5,36.0,29.75,WNW,297,3.0,5.0,46,0.00,,,0.00,0,WeatherCatV1.21B27,2013-09-11 12:15:00,
2013-09-11 05:20:00,56.5,36.0,29.75,WNW,298,3.0,5.0,46,0.00,,,0.00,0,WeatherCatV1.21B27,2013-09-11 12:20:00,
2013-09-11 05:25:00,56.3,36.3,29.75,WNW,293,2.0,4.0,47,0.00,,,0.00,0,WeatherCatV1.21B27,2013-09-11 12:25:00,
2013-09-11 05:30:00,56.3,36.3,29.77,WNW,297,3.0,4.0,47,0.00,,,0.00,0,WeatherCatV1.21B27,2013-09-11 12:30:00,
2013-09-11 05:35:00,56.3,36.3,29.77,WNW,299,3.0,5.0,47,0.00,,,0.00,0,WeatherCatV1.21B27,2013-09-11 12:35:00,
2013-09-11 05:40:00,56.2,36.2,29.77,WNW,299,4.0,4.0,47,0.00,,,0.00,0,WeatherCatV1.21B27,2013-09-11 12:40:00,
2013-09-11 05:46:00,56.2,36.8,29.77,WNW,299,0.0,3.0,48,0.00,,,0.00,0,WeatherCatV1.21B27,2013-09-11 12:46:00,
2013-09-11 05:51:00,56.2,36.8,29.77,WNW,299,2.0,4.0,48,0.00,,,0.00,0,WeatherCatV1.21B27,2013-09-11 12:51:00,
2013-09-11 05:56:00,56.0,36.6,29.77,WNW,299,3.0,4.0,48,0.00,,,0.00,0,WeatherCatV1.21B27,2013-09-11 12:56:00,
2013-09-11 06:01:00,56.0,36.6,29.78,WNW,299,4.0,5.0,48,0.00,,,0.00,0,WeatherCatV1.21B27,2013-09-11 13:01:00,
2013-09-11 06:06:00,56.2,36.8,29.78,WNW,299,4.0,5.0,48,0.00,,,0.00,0,WeatherCatV1.21B27,2013-09-11 13:06:00,
2013-09-11 06:11:00,56.2,36.8,29.78,WNW,293,3.0,4.0,48,0.00,,,0.00,0,WeatherCatV1.21B27,2013-09-11 13:11:00,
2013-09-11 06:16:00,56.2,37.3,29.81,WNW,299,3.0,4.0,49,0.00,,,0.00,0,WeatherCatV1.21B27,2013-09-11 13:16:00,
2013-09-11 06:21:00,56.2,37.3,29.81,WNW,288,4.0,4.0,49,0.00,,,0.00,0,WeatherCatV1.21B27,2013-09-11 13:21:00,
2013-09-11 06:26:00,56.2,37.3,29.81,WNW,288,3.0,4.0,49,0.00,,,0.00,0,WeatherCatV1.21B27,2013-09-11 13:26:00,
2013-09-11 06:31:00,56.2,37.8,29.81,WNW,288,2.0,5.0,50,0.00,,,0.00,0,WeatherCatV1.21B27,2013-09-11 13:31:00,
2013-09-11 06:36:00,56.2,37.3,29.81,WNW,288,3.0,3.0,49,0.00,,,0.00,0,WeatherCatV1.21B27,2013-09-11 13:36:00,
2013-09-11 06:41:00,56.2,37.8,29.81,WNW,288,3.0,4.0,50,0.00,,,0.00,0,WeatherCatV1.21B27,2013-09-11 13:41:00,
2013-09-11 06:46:00,56.2,37.8,29.81,WNW,297,2.0,4.0,50,0.00,,,0.00,5,WeatherCatV1.21B27,2013-09-11 13:46:00,
2013-09-11 06:51:00,56.0,38.6,29.81,WNW,293,0.0,0.0,52,0.00,,,0.00,9,WeatherCatV1.21B27,2013-09-11 13:51:00,
2013-09-11 06:56:00,56.0,38.6,29.81,WNW,293,3.0,4.0,52,0.00,,,0.00,14,WeatherCatV1.21B27,2013-09-11 13:56:00,
2013-09-11 07:01:00,56.0,38.6,29.81,WNW,293,0.0,4.0,52,0.00,,,0.00,18,WeatherCatV1.21B27,2013-09-11 14:01:00,
2013-09-11 07:06:00,56.2,38.8,29.81,WNW,288,4.0,5.0,52,0.00,,,0.00,19,WeatherCatV1.21B27,2013-09-11 14:06:00,
2013-09-11 07:11:00,56.3,38.9,29.81,WNW,288,3.0,4.0,52,0.00,,,0.00,23,WeatherCatV1.21B27,2013-09-11 14:11:00,
2013-09-11 07:17:00,56.5,39.1,29.85,WNW,288,3.0,3.0,52,0.00,,,0.00,30,WeatherCatV1.21B27,2013-09-11 14:17:00,
2013-09-11 07:22:00,56.5,38.1,29.85,WNW,288,0.0,1.0,50,0.00,,,0.00,44,WeatherCatV1.21B27,2013-09-11 14:22:00,
2013-09-11 07:27:00,56.5,37.6,29.85,WNW,288,0.0,0.0,49,0.00,,,0.00,60,WeatherCatV1.21B27,2013-09-11 14:27:00,
2013-09-11 07:32:00,56.5,37.6,29.85,WNW,288,2.0,3.0,49,0.00,,,0.00,83,WeatherCatV1.21B27,2013-09-11 14:32:00,
2013-09-11 07:37:00,56.5,37.6,29.85,WNW,288,0.0,1.0,49,0.00,,,0.00,102,WeatherCatV1.21B27,2013-09-11 14:37:00,
2013-09-11 07:42:00,56.6,37.7,29.85,WNW,288,0.0,0.0,49,0.00,,,0.00,107,WeatherCatV1.21B27,2013-09-11 14:42:00,
2013-09-11 07:47:00,56.6,37.7,29.85,WNW,288,0.0,0.0,49,0.00,,,0.00,111,WeatherCatV1.21B27,2013-09-11 14:47:00,
2013-09-11 07:52:00,56.7,37.8,29.85,WNW,288,0.0,0.0,49,0.00,,,0.00,123,WeatherCatV1.21B27,2013-09-11 14:52:00,
2013-09-11 07:57:00,56.9,38.5,29.85,WNW,288,0.0,0.0,50,0.00,,,0.00,135,WeatherCatV1.21B27,2013-09-11 14:57:00,
2013-09-11 08:02:00,57.0,38.0,29.85,WNW,288,0.0,2.0,49,0.00,,,0.00,141,WeatherCatV1.21B27,2013-09-11 15:02:00,
2013-09-11 08:07:00,57.2,38.2,29.85,WNW,288,0.0,0.0,49,0.00,,,0.00,130,WeatherCatV1.21B27,2013-09-11 15:07:00,
2013-09-11 08:12:00,57.3,38.8,29.85,WNW,288,0.0,0.0,50,0.00,,,0.00,125,WeatherCatV1.21B27,2013-09-11 15:12:00,
2013-09-11 08:17:00,57.5,39.0,29.86,WNW,288,0.0,0.0,50,0.00,,,0.00,128,WeatherCatV1.21B27,2013-09-11 15:17:00,
2013-09-11 08:22:00,57.6,38.6,29.86,WNW,288,0.0,1.0,49,0.00,,,0.00,144,WeatherCatV1.21B27,2013-09-11 15:22:00,
2013-09-11 08:27:00,57.6,38.6,29.86,WNW,288,2.0,3.0,49,0.00,,,0.00,176,WeatherCatV1.21B27,2013-09-11 15:27:00,
2013-09-11 08:32:00,57.8,38.8,29.86,WNW,288,0.0,2.0,49,0.00,,,0.00,216,WeatherCatV1.21B27,2013-09-11 15:32:00,
2013-09-11 08:37:00,58.0,39.0,29.86,WNW,288,0.0,3.0,49,0.00,,,0.00,265,WeatherCatV1.21B27,2013-09-11 15:37:00,
2013-09-11 08:42:00,58.1,38.5,29.86,WNW,288,1.0,4.0,48,0.00,,,0.00,311,WeatherCatV1.21B27,2013-09-11 15:42:00,
2013-09-11 08:47:00,58.3,38.7,29.86,WNW,288,2.0,3.0,48,0.00,,,0.00,283,WeatherCatV1.21B27,2013-09-11 15:47:00,
2013-09-11 08:52:00,58.4,39.3,29.86,WNW,283,3.0,4.0,49,0.00,,,0.00,246,WeatherCatV1.21B27,2013-09-11 15:52:00,
2013-09-11 08:57:00,58.6,38.4,29.86,WNW,283,0.0,4.0,47,0.00,,,0.00,237,WeatherCatV1.21B27,2013-09-11 15:57:00,
2013-09-11 09:02:00,58.6,38.4,29.86,WNW,283,2.0,4.0,47,0.00,,,0.00,218,WeatherCatV1.21B27,2013-09-11 16:02:00,
2013-09-11 09:07:00,58.7,38.0,29.86,West,278,2.0,3.0,46,0.00,,,0.00,234,WeatherCatV1.21B27,2013-09-11 16:07:00,
2013-09-11 09:12:00,58.7,38.5,29.86,WNW,293,4.0,4.0,47,0.00,,,0.00,260,WeatherCatV1.21B27,2013-09-11 16:12:00,
2013-09-11 09:17:00,58.7,38.0,29.88,WNW,283,4.0,6.0,46,0.00,,,0.00,294,WeatherCatV1.21B27,2013-09-11 16:17:00,
2013-09-11 09:22:00,58.7,38.5,29.88,West,273,3.0,5.0,47,0.00,,,0.00,341,WeatherCatV1.21B27,2013-09-11 16:22:00,
2013-09-11 09:27:00,58.7,38.5,29.88,WNW,293,2.0,5.0,47,0.00,,,0.00,327,WeatherCatV1.21B27,2013-09-11 16:27:00,
2013-09-11 09:32:00,58.9,39.2,29.89,WNW,293,4.0,4.0,48,0.00,,,0.00,339,WeatherCatV1.21B27,2013-09-11 16:32:00,
2013-09-11 09:37:00,59.0,38.8,29.89,WNW,299,2.0,4.0,47,0.00,,,0.00,318,WeatherCatV1.21B27,2013-09-11 16:37:00,
2013-09-11 09:42:00,59.0,39.3,29.89,WNW,288,4.0,5.0,48,0.00,,,0.00,359,WeatherCatV1.21B27,2013-09-11 16:42:00,
2013-09-11 09:47:00,59.3,39.1,29.89,WNW,288,5.0,6.0,47,0.00,,,0.00,359,WeatherCatV1.21B27,2013-09-11 16:47:00,
2013-09-11 09:52:00,59.5,39.2,29.89,WNW,293,0.0,4.0,47,0.00,,,0.00,348,WeatherCatV1.21B27,2013-09-11 16:52:00,
2013-09-11 09:57:00,59.6,38.8,29.89,WNW,299,1.0,6.0,46,0.00,,,0.00,313,WeatherCatV1.21B27,2013-09-11 16:57:00,
2013-09-11 10:02:00,59.8,39.0,29.88,West,278,4.0,5.0,46,0.00,,,0.00,279,WeatherCatV1.21B27,2013-09-11 17:02:00,
2013-09-11 10:07:00,60.1,38.7,29.88,WNW,293,3.0,6.0,45,0.00,,,0.00,503,WeatherCatV1.21B27,2013-09-11 17:07:00,
2013-09-11 10:12:00,60.4,39.5,29.88,WNW,293,6.0,6.0,46,0.00,,,0.00,684,WeatherCatV1.21B27,2013-09-11 17:12:00,
2013-09-11 10:17:00,60.9,38.8,29.88,West,270,5.0,8.0,44,0.00,,,0.00,679,WeatherCatV1.21B27,2013-09-11 17:17:00,
2013-09-11 10:22:00,61.2,38.5,29.88,West,275,6.0,7.0,43,0.00,,,0.00,642,WeatherCatV1.21B27,2013-09-11 17:22:00,
2013-09-11 10:27:00,61.6,38.9,29.88,WNW,288,4.0,9.0,43,0.00,,,0.00,626,WeatherCatV1.21B27,2013-09-11 17:27:00,
2013-09-11 10:32:00,62.0,38.0,29.88,WNW,283,5.0,9.0,41,0.00,,,0.00,622,WeatherCatV1.21B27,2013-09-11 17:32:00,
2013-09-11 10:37:00,62.3,37.7,29.88,West,261,4.0,4.0,40,0.00,,,0.00,629,WeatherCatV1.21B27,2013-09-11 17:37:00,
2013-09-11 10:42:00,62.6,36.0,29.88,West,264,6.0,7.0,37,0.00,,,0.00,642,WeatherCatV1.21B27,2013-09-11 17:42:00,
2013-09-11 10:47:00,63.1,36.4,29.86,WNW,283,7.0,9.0,37,0.00,,,0.00,645,WeatherCatV1.21B27,2013-09-11 17:47:00,
2013-09-11 10:52:00,63.4,35.3,29.86,West,266,5.0,5.0,35,0.00,,,0.00,659,WeatherCatV1.21B27,2013-09-11 17:52:00,
2013-09-11 10:57:00,63.7,35.5,29.86,WNW,288,3.0,7.0,35,0.00,,,0.00,666,WeatherCatV1.21B27,2013-09-11 17:57:00,
2013-09-11 11:02:00,64.0,34.3,29.87,West,266,3.0,11.0,33,0.00,,,0.00,612,WeatherCatV1.21B27,2013-09-11 18:02:00,
2013-09-11 11:07:00,64.2,34.5,29.87,West,279,2.0,7.0,33,0.00,,,0.00,626,WeatherCatV1.21B27,2013-09-11 18:07:00,
2013-09-11 11:12:00,64.3,34.6,29.87,WNW,288,5.0,6.0,33,0.00,,,0.00,628,WeatherCatV1.21B27,2013-09-11 18:12:00,
2013-09-11 11:17:00,64.7,33.4,29.87,West,278,2.0,3.0,31,0.00,,,0.00,728,WeatherCatV1.21B27,2013-09-11 18:17:00,
2013-09-11 11:22:00,65.0,35.2,29.87,WNW,288,4.0,6.0,33,0.00,,,0.00,712,WeatherCatV1.21B27,2013-09-11 18:22:00,
2013-09-11 11:27:00,65.5,31.5,29.87,WNW,288,4.0,9.0,28,0.00,,,0.00,710,WeatherCatV1.21B27,2013-09-11 18:27:00,
2013-09-11 11:32:00,65.8,31.8,29.86,West,274,3.0,8.0,28,0.00,,,0.00,738,WeatherCatV1.21B27,2013-09-11 18:32:00,
2013-09-11 11:37:00,66.3,32.2,29.86,West,271,4.0,6.0,28,0.00,,,0.00,729,WeatherCatV1.21B27,2013-09-11 18:37:00,
2013-09-11 11:42:00,66.8,32.6,29.86,SW,224,0.0,1.0,28,0.00,,,0.00,749,WeatherCatV1.21B27,2013-09-11 18:42:00,
2013-09-11 11:47:00,67.9,33.6,29.85,WNW,283,3.0,5.0,28,0.00,,,0.00,740,WeatherCatV1.21B27,2013-09-11 18:47:00,
2013-09-11 11:52:00,68.9,33.5,29.85,West,271,9.0,9.0,27,0.00,,,0.00,770,WeatherCatV1.21B27,2013-09-11 18:52:00,
2013-09-11 11:57:00,69.1,32.8,29.85,WNW,283,4.0,7.0,26,0.00,,,0.00,795,WeatherCatV1.21B27,2013-09-11 18:57:00,
2013-09-11 12:02:00,68.9,33.5,29.84,WNW,293,3.0,6.0,27,0.00,,,0.00,807,WeatherCatV1.21B27,2013-09-11 19:02:00,
2013-09-11 12:07:00,68.6,32.3,29.84,West,274,3.0,9.0,26,0.00,,,0.00,758,WeatherCatV1.21B27,2013-09-11 19:07:00,
2013-09-11 12:12:00,68.3,33.0,29.84,SW,228,5.0,7.0,27,0.00,,,0.00,823,WeatherCatV1.21B27,2013-09-11 19:12:00,
2013-09-11 12:17:00,68.4,33.1,29.84,West,265,4.0,11.0,27,0.00,,,0.00,838,WeatherCatV1.21B27,2013-09-11 19:17:00,
2013-09-11 12:22:00,68.4,33.1,29.84,West,262,5.0,7.0,27,0.00,,,0.00,677,WeatherCatV1.21B27,2013-09-11 19:22:00,
2013-09-11 12:27:00,68.6,33.3,29.84,WSW,245,1.0,6.0,27,0.00,,,0.00,745,WeatherCatV1.21B27,2013-09-11 19:27:00,
2013-09-11 12:32:00,69.8,33.4,29.82,WNW,297,6.0,7.0,26,0.00,,,0.00,854,WeatherCatV1.21B27,2013-09-11 19:32:00,
2013-09-11 12:37:00,70.1,34.6,29.82,West,277,0.0,9.0,27,0.00,,,0.00,853,WeatherCatV1.21B27,2013-09-11 19:37:00,
2013-09-11 12:42:00,70.4,32.9,29.82,West,259,1.0,5.0,25,0.00,,,0.00,854,WeatherCatV1.21B27,2013-09-11 19:42:00,
2013-09-11 12:47:00,71.3,31.6,29.81,WNW,283,6.0,8.0,23,0.00,,,0.00,868,WeatherCatV1.21B27,2013-09-11 19:47:00,
2013-09-11 12:52:00,71.8,32.0,29.81,West,264,10.0,11.0,23,0.00,,,0.00,847,WeatherCatV1.21B27,2013-09-11 19:52:00,
2013-09-11 12:57:00,72.5,31.5,29.81,South,180,4.0,6.0,22,0.00,,,0.00,844,WeatherCatV1.21B27,2013-09-11 19:57:00,
2013-09-11 13:02:00,73.5,30.0,29.78,West,279,3.0,4.0,20,0.00,,,0.00,809,WeatherCatV1.21B27,2013-09-11 20:02:00,
2013-09-11 13:07:00,73.9,30.3,29.78,West,264,6.0,10.0,20,0.00,,,0.00,817,WeatherCatV1.21B27,2013-09-11 20:07:00,
2013-09-11 13:12:00,72.5,27.9,29.78,WNW,288,1.0,13.0,19,0.00,,,0.00,895,WeatherCatV1.21B27,2013-09-11 20:12:00,
2013-09-11 13:17:00,71.5,27.1,29.80,West,265,7.0,14.0,19,0.00,,,0.00,863,WeatherCatV1.21B27,2013-09-11 20:17:00,
2013-09-11 13:22:00,70.8,27.7,29.80,WNW,301,8.0,16.0,20,0.00,,,0.00,800,WeatherCatV1.21B27,2013-09-11 20:22:00,
2013-09-11 13:27:00,70.3,28.5,29.80,NW,305,7.0,12.0,21,0.00,,,0.00,766,WeatherCatV1.21B27,2013-09-11 20:27:00,
2013-09-11 13:32:00,70.1,27.2,29.82,WNW,283,13.0,16.0,20,0.00,,,0.00,566,WeatherCatV1.21B27,2013-09-11 20:32:00,
2013-09-11 13:37:00,69.6,27.9,29.82,WNW,288,7.0,13.0,21,0.00,,,0.00,770,WeatherCatV1.21B27,2013-09-11 20:37:00,
2013-09-11 13:42:00,70.3,27.3,29.82,NNW,332,5.0,8.0,20,0.00,,,0.00,810,WeatherCatV1.21B27,2013-09-11 20:42:00,
2013-09-11 13:47:00,70.9,29.0,29.81,West,261,4.0,11.0,21,0.00,,,0.00,812,WeatherCatV1.21B27,2013-09-11 20:47:00,
2013-09-11 13:52:00,70.8,26.5,29.81,WNW,303,6.0,14.0,19,0.00,,,0.00,884,WeatherCatV1.21B27,2013-09-11 20:52:00,
2013-09-11 13:57:00,70.6,28.8,29.81,NW,307,11.0,15.0,21,0.00,,,0.00,786,WeatherCatV1.21B27,2013-09-11 20:57:00,
2013-09-11 14:02:00,70.3,29.6,29.79,WNW,297,4.0,13.0,22,0.00,,,0.00,849,WeatherCatV1.21B27,2013-09-11 21:02:00,
2013-09-11 14:07:00,70.8,28.9,29.79,West,270,11.0,11.0,21,0.00,,,0.00,856,WeatherCatV1.21B27,2013-09-11 21:07:00,
2013-09-11 14:12:00,70.8,28.9,29.79,WNW,300,9.0,11.0,21,0.00,,,0.00,728,WeatherCatV1.21B27,2013-09-11 21:12:00,
2013-09-11 14:17:00,70.4,29.7,29.81,WNW,288,7.0,15.0,22,0.00,,,0.00,784,WeatherCatV1.21B27,2013-09-11 21:17:00,
2013-09-11 14:22:00,70.1,30.6,29.81,West,272,11.0,12.0,23,0.00,,,0.00,710,WeatherCatV1.21B27,2013-09-11 21:22:00,
2013-09-11 14:27:00,69.9,30.4,29.81,WSW,253,8.0,13.0,23,0.00,,,0.00,675,WeatherCatV1.21B27,2013-09-11 21:27:00,
2013-09-11 14:32:00,69.8,30.3,29.81,NW,305,14.0,17.0,23,0.00,,,0.00,742,WeatherCatV1.21B27,2013-09-11 21:32:00,
2013-09-11 14:37:00,69.4,30.0,29.81,WNW,283,6.0,12.0,23,0.00,,,0.00,826,WeatherCatV1.21B27,2013-09-11 21:37:00,
2013-09-11 14:42:00,69.3,29.9,29.81,NW,323,10.0,17.0,23,0.00,,,0.00,575,WeatherCatV1.21B27,2013-09-11 21:42:00,
2013-09-11 14:47:00,69.6,32.2,29.81,West,278,5.0,13.0,25,0.00,,,0.00,733,WeatherCatV1.21B27,2013-09-11 21:47:00,
2013-09-11 14:52:00,69.8,30.3,29.81,WNW,283,10.0,13.0,23,0.00,,,0.00,691,WeatherCatV1.21B27,2013-09-11 21:52:00,
2013-09-11 14:57:00,69.6,31.2,29.81,WNW,297,10.0,16.0,24,0.00,,,0.00,758,WeatherCatV1.21B27,2013-09-11 21:57:00,
2013-09-11 15:02:00,69.4,32.0,29.80,WNW,293,16.0,16.0,25,0.00,,,0.00,714,WeatherCatV1.21B27,2013-09-11 22:02:00,
2013-09-11 15:07:00,69.6,34.1,29.80,WSW,245,6.0,11.0,27,0.00,,,0.00,701,WeatherCatV1.21B27,2013-09-11 22:07:00,
2013-09-11 15:12:00,69.8,33.4,29.80,WNW,288,7.0,16.0,26,0.00,,,0.00,765,WeatherCatV1.21B27,2013-09-11 22:12:00,
2013-09-11 15:17:00,69.9,33.5,29.79,West,268,7.0,13.0,26,0.00,,,0.00,520,WeatherCatV1.21B27,2013-09-11 22:17:00,
2013-09-11 15:22:00,69.8,33.4,29.79,WSW,255,7.0,14.0,26,0.00,,,0.00,494,WeatherCatV1.21B27,2013-09-11 22:22:00,
2013-09-11 15:27:00,69.4,34.0,29.79,WNW,297,8.0,13.0,27,0.00,,,0.00,512,WeatherCatV1.21B27,2013-09-11 22:27:00,
2013-09-11 15:32:00,69.4,34.0,29.80,West,259,8.0,13.0,27,0.00,,,0.00,513,WeatherCatV1.21B27,2013-09-11 22:32:00,
2013-09-11 15:37:00,69.4,34.9,29.80,WSW,248,10.0,10.0,28,0.00,,,0.00,432,WeatherCatV1.21B27,2013-09-11 22:37:00,
2013-09-11 15:42:00,69.3,34.8,29.80,SW,230,6.0,15.0,28,0.00,,,0.00,380,WeatherCatV1.21B27,2013-09-11 22:42:00,
2013-09-11 15:47:00,69.1,34.6,29.80,West,264,13.0,14.0,28,0.00,,,0.00,392,WeatherCatV1.21B27,2013-09-11 22:47:00,
2013-09-11 15:52:00,68.8,34.4,29.80,West,274,6.0,7.0,28,0.00,,,0.00,489,WeatherCatV1.21B27,2013-09-11 22:52:00,
2013-09-11 15:57:00,68.8,34.4,29.80,NW,318,7.0,14.0,28,0.00,,,0.00,369,WeatherCatV1.21B27,2013-09-11 22:57:00,
2013-09-11 16:02:00,68.6,35.1,29.80,NW,311,4.0,11.0,29,0.00,,,0.00,380,WeatherCatV1.21B27,2013-09-11 23:02:00,
2013-09-11 16:07:00,68.4,35.8,29.80,WNW,283,9.0,11.0,30,0.00,,,0.00,464,WeatherCatV1.21B27,2013-09-11 23:07:00,
2013-09-11 16:12:00,68.6,35.1,29.80,WSW,257,7.0,12.0,29,0.00,,,0.00,483,WeatherCatV1.21B27,2013-09-11 23:12:00,
2013-09-11 16:17:00,68.6,36.8,29.80,NW,309,10.0,14.0,31,0.00,,,0.00,348,WeatherCatV1.21B27,2013-09-11 23:17:00,
2013-09-11 16:22:00,68.1,35.5,29.80,West,274,4.0,7.0,30,0.00,,,0.00,232,WeatherCatV1.21B27,2013-09-11 23:22:00,
2013-09-11 16:27:00,67.8,36.1,29.80,NW,307,7.0,11.0,31,0.00,,,0.00,285,WeatherCatV1.21B27,2013-09-11 23:27:00,
2013-09-11 16:32:00,67.6,38.2,29.81,NW,322,3.0,10.0,34,0.00,,,0.00,288,WeatherCatV1.21B27,2013-09-11 23:32:00,
2013-09-11 16:37:00,67.8,39.1,29.81,NW,307,8.0,8.0,35,0.00,,,0.00,297,WeatherCatV1.21B27,2013-09-11 23:37:00,
2013-09-11 16:42:00,67.6,40.4,29.81,NNW,340,9.0,11.0,37,0.00,,,0.00,408,WeatherCatV1.21B27,2013-09-11 23:42:00,
2013-09-11 16:47:00,67.4,40.9,29.81,NW,305,16.0,16.0,38,0.00,,,0.00,425,WeatherCatV1.21B27,2013-09-11 23:47:00,
2013-09-11 16:52:00,67.6,41.1,29.81,WNW,303,13.0,13.0,38,0.00,,,0.00,417,WeatherCatV1.21B27,2013-09-11 23:52:00,
2013-09-11 16:57:00,67.6,39.7,29.81,NW,304,11.0,13.0,36,0.00,,,0.00,380,WeatherCatV1.21B27,2013-09-11 23:57:00,
2013-09-11 17:02:00,67.3,39.4,29.81,NNW,337,9.0,16.0,36,0.00,,,0.00,362,WeatherCatV1.21B27,2013-09-12 00:02:00,
2013-09-11 17:07:00,67.3,39.4,29.81,WNW,283,16.0,17.0,36,0.00,,,0.00,380,WeatherCatV1.21B27,2013-09-12 00:07:00,
2013-09-11 17:12:00,67.3,38.7,29.81,WNW,297,13.0,17.0,35,0.00,,,0.00,366,WeatherCatV1.21B27,2013-09-12 00:12:00,
2013-09-11 17:17:00,66.9,38.3,29.83,NW,307,6.0,17.0,35,0.00,,,0.00,329,WeatherCatV1.21B27,2013-09-12 00:17:00,
2013-09-11 17:22:00,66.8,38.3,29.83,WNW,283,13.0,16.0,35,0.00,,,0.00,362,WeatherCatV1.21B27,2013-09-12 00:22:00,
2013-09-11 17:27:00,66.6,38.1,29.83,WNW,288,15.0,15.0,35,0.00,,,0.00,359,WeatherCatV1.21B27,2013-09-12 00:27:00,
2013-09-11 17:32:00,66.6,36.6,29.83,WNW,293,7.0,15.0,33,0.00,,,0.00,338,WeatherCatV1.21B27,2013-09-12 00:32:00,
2013-09-11 17:37:00,66.1,36.9,29.83,WNW,301,11.0,16.0,34,0.00,,,0.00,116,WeatherCatV1.21B27,2013-09-12 00:37:00,
2013-09-11 17:42:00,65.6,35.7,29.83,NW,319,12.0,18.0,33,0.00,,,0.00,116,WeatherCatV1.21B27,2013-09-12 00:42:00,
2013-09-11 17:47:00,65.3,36.2,29.83,NW,304,8.0,15.0,34,0.00,,,0.00,116,WeatherCatV1.21B27,2013-09-12 00:47:00,
2013-09-11 17:52:00,65.0,35.9,29.83,NNW,329,13.0,16.0,34,0.00,,,0.00,116,WeatherCatV1.21B27,2013-09-12 00:52:00,
2013-09-11 17:57:00,64.8,36.5,29.83,WNW,288,11.0,15.0,35,0.00,,,0.00,111,WeatherCatV1.21B27,2013-09-12 00:57:00,
2013-09-11 18:02:00,64.7,36.4,29.85,NW,308,11.0,11.0,35,0.00,,,0.00,109,WeatherCatV1.21B27,2013-09-12 01:02:00,
2013-09-11 18:07:00,64.5,37.0,29.85,WNW,288,7.0,12.0,36,0.00,,,0.00,90,WeatherCatV1.21B27,2013-09-12 01:07:00,
2013-09-11 18:12:00,64.3,36.8,29.85,WNW,293,10.0,11.0,36,0.00,,,0.00,70,WeatherCatV1.21B27,2013-09-12 01:12:00,
2013-09-11 18:17:00,64.2,37.4,29.84,NW,313,11.0,11.0,37,0.00,,,0.00,69,WeatherCatV1.21B27,2013-09-12 01:17:00,
2013-09-11 18:22:00,64.0,37.2,29.84,NW,319,6.0,11.0,37,0.00,,,0.00,63,WeatherCatV1.21B27,2013-09-12 01:22:00,
2013-09-11 18:27:00,63.9,37.1,29.84,WNW,283,7.0,11.0,37,0.00,,,0.00,53,WeatherCatV1.21B27,2013-09-12 01:27:00,
2013-09-11 18:32:00,63.9,37.1,29.84,WNW,283,8.0,15.0,37,0.00,,,0.00,46,WeatherCatV1.21B27,2013-09-12 01:32:00,
2013-09-11 18:37:00,63.7,37.6,29.84,WNW,283,10.0,10.0,38,0.00,,,0.00,37,WeatherCatV1.21B27,2013-09-12 01:37:00,
2013-09-11 18:42:00,63.5,37.4,29.84,NW,304,8.0,11.0,38,0.00,,,0.00,33,WeatherCatV1.21B27,2013-09-12 01:42:00,
2013-09-11 18:47:00,63.4,36.7,29.84,West,263,6.0,10.0,37,0.00,,,0.00,39,WeatherCatV1.21B27,2013-09-12 01:47:00,
2013-09-11 18:52:00,63.2,37.2,29.84,WNW,293,7.0,12.0,38,0.00,,,0.00,42,WeatherCatV1.21B27,2013-09-12 01:52:00,
2013-09-11 18:57:00,63.2,36.5,29.84,North,351,4.0,11.0,37,0.00,,,0.00,32,WeatherCatV1.21B27,2013-09-12 01:57:00,
2013-09-11 19:02:00,63.1,36.4,29.86,WNW,303,9.0,10.0,37,0.00,,,0.00,19,WeatherCatV1.21B27,2013-09-12 02:02:00,
2013-09-11 19:07:00,63.1,36.4,29.86,NW,314,9.0,12.0,37,0.00,,,0.00,11,WeatherCatV1.21B27,2013-09-12 02:07:00,
2013-09-11 19:12:00,63.1,36.4,29.86,WNW,283,5.0,10.0,37,0.00,,,0.00,7,WeatherCatV1.21B27,2013-09-12 02:12:00,
2013-09-11 19:17:00,62.9,36.2,29.84,WNW,293,6.0,12.0,37,0.00,,,0.00,7,WeatherCatV1.21B27,2013-09-12 02:17:00,
2013-09-11 19:22:00,62.9,35.5,29.84,NW,311,7.0,11.0,36,0.00,,,0.00,0,WeatherCatV1.21B27,2013-09-12 02:22:00,
2013-09-11 19:27:00,62.7,35.4,29.84,West,279,6.0,9.0,36,0.00,,,0.00,0,WeatherCatV1.21B27,2013-09-12 02:27:00,
2013-09-11 19:32:00,62.7,36.0,29.84,WNW,293,3.0,6.0,37,0.00,,,0.00,0,WeatherCatV1.21B27,2013-09-12 02:32:00,
2013-09-11 19:37:00,62.6,36.0,29.84,WNW,300,7.0,10.0,37,0.00,,,0.00,0,WeatherCatV1.21B27,2013-09-12 02:37:00,
2013-09-11 19:42:00,62.4,36.5,29.84,WNW,303,6.0,7.0,38,0.00,,,0.00,0,WeatherCatV1.21B27,2013-09-12 02:42:00,
2013-09-11 19:47:00,62.4,36.5,29.86,NW,304,7.0,8.0,38,0.00,,,0.00,0,WeatherCatV1.21B27,2013-09-12 02:47:00,
2013-09-11 19:52:00,62.3,35.7,29.86,NW,308,4.0,7.0,37,0.00,,,0.00,0,WeatherCatV1.21B27,2013-09-12 02:52:00,
2013-09-11 19:57:00,62.1,36.2,29.86,NNW,335,4.0,7.0,38,0.00,,,0.00,0,WeatherCatV1.21B27,2013-09-12 02:57:00,
2013-09-11 20:02:00,62.1,36.2,29.86,NW,322,3.0,4.0,38,0.00,,,0.00,0,WeatherCatV1.21B27,2013-09-12 03:02:00,
2013-09-11 20:07:00,62.0,36.1,29.86,NNW,335,5.0,10.0,38,0.00,,,0.00,0,WeatherCatV1.21B27,2013-09-12 03:07:00,
2013-09-11 20:12:00,61.8,35.9,29.86,WNW,303,10.0,12.0,38,0.00,,,0.00,0,WeatherCatV1.21B27,2013-09-12 03:12:00,
2013-09-11 20:17:00,61.8,35.9,29.85,NNW,338,3.0,10.0,38,0.00,,,0.00,0,WeatherCatV1.21B27,2013-09-12 03:17:00,
2013-09-11 20:22:00,61.8,35.2,29.85,NW,304,6.0,10.0,37,0.00,,,0.00,0,WeatherCatV1.21B27,2013-09-12 03:22:00,
2013-09-11 20:27:00,61.8,35.2,29.85,NW,311,2.0,5.0,37,0.00,,,0.00,0,WeatherCatV1.21B27,2013-09-12 03:27:00,
2013-09-11 20:32:00,61.5,35.7,29.85,NW,320,5.0,10.0,38,0.00,,,0.00,0,WeatherCatV1.21B27,2013-09-12 03:32:00,
2013-09-11 20:37:00,61.5,35.7,29.85,NNW,327,4.0,5.0,38,0.00,,,0.00,0,WeatherCatV1.21B27,2013-09-12 03:37:00,
2013-09-11 20:42:00,61.3,35.5,29.85,NW,307,6.0,7.0,38,0.00,,,0.00,0,WeatherCatV1.21B27,2013-09-12 03:42:00,
2013-09-11 20:47:00,61.2,35.4,29.86,WNW,303,3.0,5.0,38,0.00,,,0.00,0,WeatherCatV1.21B27,2013-09-12 03:47:00,
2013-09-11 20:52:00,61.0,35.2,29.86,NW,307,0.0,7.0,38,0.00,,,0.00,0,WeatherCatV1.21B27,2013-09-12 03:52:00,
2013-09-11 20:57:00,60.9,34.5,29.86,WNW,299,6.0,7.0,37,0.00,,,0.00,0,WeatherCatV1.21B27,2013-09-12 03:57:00,
2013-09-11 21:01:00,60.9,35.1,29.86,NW,316,5.0,10.0,38,0.00,,,0.00,0,WeatherCatV1.21B27,2013-09-12 04:01:00,
2013-09-11 21:02:00,60.9,34.5,29.86,NW,316,6.0,10.0,37,0.00,,,0.00,0,WeatherCatV1.21B27,2013-09-12 04:02:00,
2013-09-11 21:03:00,60.9,33.8,29.86,WNW,299,9.0,10.0,36,0.00,,,0.00,0,WeatherCatV1.21B27,2013-09-12 04:03:00,
2013-09-11 21:07:00,61.0,33.9,29.86,WNW,303,5.0,6.0,36,0.00,,,0.00,0,WeatherCatV1.21B27,2013-09-12 04:07:00,
2013-09-11 21:12:00,60.9,34.5,29.86,WNW,293,6.0,8.0,37,0.00,,,0.00,0,WeatherCatV1.21B27,2013-09-12 04:12:00,
2013-09-11 21:15:00,60.9,34.5,29.86,WNW,293,5.0,9.0,37,0.00,,,0.00,0,WeatherCatV1.21B27,2013-09-12 04:15:00,
2013-09-11 21:20:00,60.9,34.5,29.86,WNW,293,6.0,10.0,37,0.00,,,0.00,0,WeatherCatV1.21B27,2013-09-12 04:20:00,
2013-09-11 21:25:00,60.9,33.8,29.86,WNW,288,5.0,6.0,36,0.00,,,0.00,0,WeatherCatV1.21B27,2013-09-12 04:25:00,
2013-09-11 21:30:00,60.7,34.3,29.86,WNW,283,4.0,8.0,37,0.00,,,0.00,0,WeatherCatV1.21B27,2013-09-12 04:30:00,
2013-09-11 21:35:00,60.7,34.3,29.86,West,270,2.0,6.0,37,0.00,,,0.00,0,WeatherCatV1.21B27,2013-09-12 04:35:00,
2013-09-11 21:40:00,60.4,34.7,29.86,WNW,288,3.0,9.0,38,0.00,,,0.00,0,WeatherCatV1.21B27,2013-09-12 04:40:00,
2013-09-11 21:45:00,60.2,34.5,29.85,WNW,293,4.0,5.0,38,0.00,,,0.00,0,WeatherCatV1.21B27,2013-09-12 04:45:00,
2013-09-11 21:50:00,60.1,34.4,29.85,WNW,283,3.0,9.0,38,0.00,,,0.00,0,WeatherCatV1.21B27,2013-09-12 04:50:00,
2013-09-11 21:55:00,59.9,34.2,29.85,WNW,288,0.0,5.0,38,0.00,,,0.00,0,WeatherCatV1.21B27,2013-09-12 04:55:00,
2013-09-11 22:00:00,59.8,34.8,29.85,West,277,5.0,5.0,39,0.00,,,0.00,0,WeatherCatV1.21B27,2013-09-12 05:00:00,
2013-09-11 22:05:00,59.6,34.6,29.85,WNW,293,3.0,6.0,39,0.00,,,0.00,0,WeatherCatV1.21B27,2013-09-12 05:05:00,
2013-09-11 22:10:00,59.5,34.5,29.85,NW,305,6.0,7.0,39,0.00,,,0.00,0,WeatherCatV1.21B27,2013-09-12 05:10:00,
2013-09-11 22:15:00,59.5,35.2,29.82,NW,308,6.0,7.0,40,0.00,,,0.00,0,WeatherCatV1.21B27,2013-09-12 05:15:00,
2013-09-11 22:20:00,59.5,34.5,29.82,WNW,301,5.0,7.0,39,0.00,,,0.00,0,WeatherCatV1.21B27,2013-09-12 05:20:00,
2013-09-11 22:25:00,59.5,35.2,29.82,WNW,293,6.0,6.0,40,0.00,,,0.00,0,WeatherCatV1.21B27,2013-09-12 05:25:00,
2013-09-11 22:30:00,59.3,35.0,29.83,WNW,293,3.0,5.0,40,0.00,,,0.00,0,WeatherCatV1.21B27,2013-09-12 05:30:00,
2013-09-11 22:35:00,59.2,34.9,29.83,WNW,293,4.0,7.0,40,0.00,,,0.00,0,WeatherCatV1.21B27,2013-09-12 05:35:00,
2013-09-11 22:40:00,59.0,34.7,29.83,WNW,288,7.0,7.0,40,0.00,,,0.00,0,WeatherCatV1.21B27,2013-09-12 05:40:00,
2013-09-11 22:45:00,59.0,34.7,29.83,WNW,288,7.0,7.0,40,0.00,,,0.00,0,WeatherCatV1.21B27,2013-09-12 05:45:00,
2013-09-11 22:50:00,59.0,35.3,29.83,West,274,5.0,6.0,41,0.00,,,0.00,0,WeatherCatV1.21B27,2013-09-12 05:50:00,
2013-09-11 22:55:00,59.0,35.3,29.83,West,279,5.0,7.0,41,0.00,,,0.00,0,WeatherCatV1.21B27,2013-09-12 05:55:00,
2013-09-11 23:00:00,59.0,35.3,29.83,West,278,6.0,8.0,41,0.00,,,0.00,0,WeatherCatV1.21B27,2013-09-12 06:00:00,
2013-09-11 23:05:00,59.0,35.9,29.83,WNW,297,7.0,7.0,42,0.00,,,0.00,0,WeatherCatV1.21B27,2013-09-12 06:05:00,
2013-09-11 23:10:00,59.2,36.7,29.83,NW,304,7.0,7.0,43,0.00,,,0.00,0,WeatherCatV1.21B27,2013-09-12 06:10:00,
2013-09-11 23:15:00,59.2,36.1,29.79,West,278,4.0,10.0,42,0.00,,,0.00,0,WeatherCatV1.21B27,2013-09-12 06:15:00,
2013-09-11 23:20:00,59.2,35.5,29.79,WNW,283,5.0,7.0,41,0.00,,,0.00,0,WeatherCatV1.21B27,2013-09-12 06:20:00,
2013-09-11 23:25:00,59.0,35.9,29.79,West,279,5.0,6.0,42,0.00,,,0.00,0,WeatherCatV1.21B27,2013-09-12 06:25:00,
2013-09-11 23:30:00,58.9,35.2,29.78,WNW,288,5.0,5.0,41,0.00,,,0.00,0,WeatherCatV1.21B27,2013-09-12 06:30:00,
2013-09-11 23:35:00,58.7,35.7,29.78,WNW,288,5.0,6.0,42,0.00,,,0.00,0,WeatherCatV1.21B27,2013-09-12 06:35:00,
2013-09-11 23:40:00,58.6,35.6,29.78,WNW,301,4.0,5.0,42,0.00,,,0.00,0,WeatherCatV1.21B27,2013-09-12 06:40:00,
2013-09-11 23:45:00,58.4,36.0,29.80,WNW,301,5.0,7.0,43,0.00,,,0.00,0,WeatherCatV1.21B27,2013-09-12 06:45:00,
2013-09-11 23:50:00,58.6,36.2,29.80,WNW,298,5.0,6.0,43,0.00,,,0.00,0,WeatherCatV1.21B27,2013-09-12 06:50:00,
2013-09-11 23:55:00,58.7,36.3,29.80,WNW,299,5.0,6.0,43,0.00,,,0.00,0,WeatherCatV1.21B27,2013-09-12 06:55:00,